This is the latest recevied weather packets stored in our database for station/object WE0DX-1. If no packets are shown the sender has not sent any weather packets the latest 10 day(s).
| Time | Temp. | Humidity | Pressure | Rain* | Wind** | Luminosity | Snow |
|---|---|---|---|---|---|---|---|
| 1777938229 | 26.11° C | 46% | 1000.9 hPa | 0 mm | - | 49 W/m² | - |
| 1777937926 | 26.11° C | 45% | 1000.8 hPa | 0 mm | - | 49 W/m² | - |
| 1777937621 | 26.11° C | 46% | 1001.1 hPa | 0 mm | - | 49 W/m² | - |
| 1777937318 | 26.11° C | 46% | 1001 hPa | 0 mm | - | 55 W/m² | - |
| 1777937016 | 26.11° C | 47% | 1000.8 hPa | 0 mm | - | 57 W/m² | - |
| 1777936712 | 26.11° C | 47% | 1000.8 hPa | 0 mm | - | 55 W/m² | - |
| 1777936409 | 26.67° C | 47% | 1000.9 hPa | 0 mm | - | 61 W/m² | - |
| 1777936105 | 26.67° C | 46% | 1001 hPa | 0 mm | - | 63 W/m² | - |
| 1777935803 | 26.67° C | 46% | 1001 hPa | 0 mm | - | 71 W/m² | - |
| 1777935502 | 26.67° C | 45% | 1000.9 hPa | 0 mm | - | 62 W/m² | - |
| 1777935197 | 26.67° C | 46% | 1001.2 hPa | 0 mm | - | 59 W/m² | - |
| 1777934895 | 27.22° C | 45% | 1000.9 hPa | 0 mm | - | 59 W/m² | - |
| 1777934592 | 27.22° C | 44% | 1001.1 hPa | 0 mm | - | 66 W/m² | - |
| 1777934288 | 27.22° C | 42% | 1000.8 hPa | 0 mm | - | 66 W/m² | - |
| 1777933984 | 27.22° C | 43% | 1000.8 hPa | 0 mm | - | 75 W/m² | - |
| 1777933681 | 27.22° C | 41% | 1001 hPa | 0 mm | - | 81 W/m² | - |
| 1777933378 | 27.78° C | 38% | 1001.1 hPa | 0 mm | - | 78 W/m² | - |
| 1777933075 | 27.78° C | 38% | 1000.9 hPa | 0 mm | - | 72 W/m² | - |
| 1777932772 | 27.78° C | 38% | 1001 hPa | 0 mm | - | 62 W/m² | - |
| 1777932469 | 27.78° C | 38% | 1001 hPa | 0 mm | - | 220 W/m² | - |
| 1777932166 | 27.78° C | 39% | 1001 hPa | 0 mm | - | 102 W/m² | - |
| 1777931863 | 27.78° C | 38% | 1001 hPa | 0 mm | - | 110 W/m² | - |
| 1777931560 | 27.78° C | 38% | 1001 hPa | 0 mm | - | 150 W/m² | - |
| 1777931256 | 27.78° C | 38% | 1001 hPa | 0 mm | - | 112 W/m² | - |
| 1777930952 | 27.78° C | 36% | 1000.9 hPa | 0 mm | - | 104 W/m² | - |
* Rain latest hour (hover to see other rain measurements)
** Current wind speed in m/s (hover to see current wind gust speed)